Mobile, AL

6:19 AM CST on December 11, 2016 (GMT -0600)
Mobile Regional

Weather History for KMOB - April, 2013

Change the Weather History Date:

Saturday, April 20, 2013

  Actual Average Record
Temperature  
Mean Temperature 55 °F 67 °F  
Max Temperature 69 °F 78 °F 88 °F (1968)
Min Temperature 41 °F 57 °F 40 °F (1953)
Degree Days  
Heating Degree Days 10 1  
Month to date heating degree days 55 52  
Since 1 July heating degree days 1541 1683  
Cooling Degree Days 0 4  
Month to date cooling degree days 59 56  
Year to date cooling degree days 103 111  
Growing Degree Days 5 (Base 50)    
Moisture  
Dew Point 38 °F    
Average Humidity 59    
Maximum Humidity 89    
Minimum Humidity 28    
Precipitation  
Precipitation 0.00 in 0.15 in 3.15 in (1912)
Month to date precipitation 4.88 3.29  
Year to date precipitation 19.86 20.20  
Sea Level Pressure  
Sea Level Pressure 30.20 in    
Wind  
Wind Speed 8 mph (NNE)    
Max Wind Speed 18 mph    
Max Gust Speed 25 mph    
Visibility 10 miles    
Events      
T = Trace of Precipitation, MM = Missing Value Source: NWS Daily Summary

Daily Weather History Graph

Daily Weather History Graph

Search for Another Location

Airport or City:

Trip Planner

Search our weather history database for the weather conditions in past years. The results will help you decide how hot, cold, wet, or windy it might be!

Date:

Astronomy

Apr. 20, 2013 Rise Set
Actual Time 6:19 AM CDT 7:24 PM CDT
Civil Twilight 5:54 AM CDT 7:49 PM CDT
Nautical Twilight 5:25 AM CDT 8:19 PM CDT
Astronomical Twilight 4:54 AM CDT 8:49 PM CDT
Moon 2:28 PM CDT (4/20) 2:46 AM CDT (4/20)
Length of Visible Light 13h 54m
Length of Day
13h 04m
Waxing Gibbous, 71% of the Moon is Illuminated
Apr 20
Waxing Gibbous
Apr 25
Full
May 2
Last Quarter
May 9
New
May 17
First Quarter

Hourly Weather History & Observations

Time (CDT) Temp. Windchill Dew Point Humidity Pressure Visibility Wind Dir Wind Speed Gust Speed Precip Events Conditions
12:56 AM 43.0 °F 40.3 °F 39.9 °F 89% 30.19 in 10.0 mi NW 4.6 mph - N/A   Clear
1:56 AM 42.1 °F 37.7 °F 39.0 °F 89% 30.18 in 10.0 mi NW 6.9 mph - N/A   Clear
2:56 AM 43.0 °F 38.2 °F 37.9 °F 82% 30.19 in 10.0 mi North 8.1 mph - N/A   Clear
3:56 AM 43.0 °F 40.3 °F 37.0 °F 80% 30.19 in 10.0 mi North 4.6 mph - N/A   Clear
4:56 AM 42.1 °F 38.4 °F 37.0 °F 82% 30.20 in 10.0 mi North 5.8 mph - N/A   Clear
5:56 AM 41.0 °F 39.0 °F 36.0 °F 82% 30.20 in 10.0 mi North 3.5 mph - N/A   Partly Cloudy
6:56 AM 42.1 °F - 37.0 °F 82% 30.23 in 10.0 mi Calm Calm - N/A   Partly Cloudy
7:56 AM 46.9 °F - 39.9 °F 77% 30.25 in 10.0 mi East 3.5 mph - N/A   Partly Cloudy
8:56 AM 52.0 °F - 39.9 °F 63% 30.25 in 10.0 mi NE 10.4 mph - N/A   Partly Cloudy
9:56 AM 55.0 °F - 39.9 °F 57% 30.27 in 10.0 mi NNE 12.7 mph - N/A   Partly Cloudy
10:56 AM 59.0 °F - 35.1 °F 41% 30.27 in 10.0 mi NNE 11.5 mph 23.0 mph N/A   Clear
11:56 AM 61.0 °F - 30.9 °F 32% 30.25 in 10.0 mi NE 16.1 mph 23.0 mph N/A   Clear
12:56 PM 63.0 °F - 34.0 °F 34% 30.22 in 10.0 mi ENE 13.8 mph 18.4 mph N/A   Clear
1:56 PM 66.0 °F - 36.0 °F 33% 30.19 in 10.0 mi NE 9.2 mph 18.4 mph N/A   Clear
2:56 PM 66.9 °F - 37.0 °F 33% 30.17 in 10.0 mi NNE 10.4 mph - N/A   Clear
3:56 PM 68.0 °F - 37.0 °F 32% 30.14 in 10.0 mi North 9.2 mph - N/A   Clear
4:56 PM 69.1 °F - 36.0 °F 30% 30.13 in 10.0 mi NNE 12.7 mph - N/A   Clear
5:56 PM 66.9 °F - 37.9 °F 34% 30.13 in 10.0 mi NE 11.5 mph - N/A   Clear
6:56 PM 64.0 °F - 39.9 °F 41% 30.15 in 10.0 mi NE 5.8 mph - N/A   Clear
7:56 PM 57.9 °F - 41.0 °F 53% 30.16 in 10.0 mi NE 5.8 mph - N/A   Clear
8:56 PM 55.9 °F - 39.9 °F 55% 30.19 in 10.0 mi NE 4.6 mph - N/A   Clear
9:56 PM 54.0 °F - 39.9 °F 59% 30.20 in 10.0 mi NNE 5.8 mph - N/A   Clear
10:56 PM 53.1 °F - 39.9 °F 61% 30.22 in 10.0 mi NNE 3.5 mph - N/A   Clear
11:56 PM 51.1 °F - 39.9 °F 66% 30.22 in 10.0 mi NNE 4.6 mph - N/A   Clear